Погода в Виннице

Украина / Винницкая область     49°13′57″N   28°28′07″E
темп.,
°C
ветер,
м/с
пор.,
м/с
влажн.,
%
обл.,
%
осадки,
мм/ч
давл.,
гПа
погр.,
м
21 октября, чт
чт2100:00+11ююз51355100 0.0 1017339
03:00+10ю41067100 0.0 1016221
06:00+9ю41170100 0.0 1014246
09:00+10ю51267100 0.0 1013325
12:00+16ююз71144100 0.0 1011535
15:00+18ююз7113798 0.0 1009905
18:00+16ююз512415 0.0 1007346
21:00+14зюз614443 0.0 1008720
22 октября, пт
пт2200:00+14зюз61454100 0.0 1008738
03:00+14з51259100 0.0 1009755
06:00+12зюз3872100 0.0 1010384
09:00+12зюз31155100 0.0 1012744
12:00+16з6103744 0.0 10131528
15:00+17зсз69375 0.0 10131829
18:00+14зюз3746100 0.0 1013630
21:00+11зюз29583 0.0 1014387
23 октября, сб
сб2300:00+10зюз412625 0.0 1015565
03:00+9зюз310725 0.0 1015408
06:00+8з412716 0.0 1016641
09:00+8з5126346 0.0 1017891
12:00+11зсз812415 0.0 10191611
15:00+11зсз710335 0.0 10191993
18:00+9зсз59415 0.0 1020860
21:00+6зсз5115816 0.0 1023834
24 октября, вс
вс2400:00+5з411605 0.0 1023482
03:00+4з5127326 0.0 1024501
06:00+5зсз5117095 0.0 1024719
09:00+5сз611705 0.1 10261106
12:00+5сз796899 0.0 10281083
15:00+6сз71052100 0.1 10281508
18:00+6сз6115495 0.0 10301591
21:00+6ссз6105143 0.0 10301251
25 октября, пн
пн2500:00+2ссз386699 0.0 1032262
03:00+2сз367045 0.0 1033239
06:000ссз357939 0.0 1034121
09:00+1ссв24735 0.0 1035198
12:00+5всв22440 0.0 1035736
15:00+8юв22335 0.0 1034939
18:00+5юв23395 0.0 103468
21:00+3юв35465 0.0 1034113